timestamp,wind_dir_avg,wind_spd_avg,wind_spd_max_dir,wind_spd_gust,battery_voltage,lat,long
2023-08-22 00:04:00+00:00,216.0,7.91,217.0,8.61,12.41,47.59359,-54.27349
2023-08-22 00:14:00+00:00,213.0,8.3,216.0,9.06,12.41,47.59359,-54.27349
2023-08-22 00:24:00+00:00,212.0,8.76,216.0,9.63,12.41,47.59359,-54.27349
2023-08-22 00:34:00+00:00,214.0,8.82,216.0,9.86,12.41,47.59359,-54.27349
2023-08-22 00:44:00+00:00,216.0,9.17,218.0,10.55,12.41,47.59359,-54.27349
2023-08-22 00:54:00+00:00,215.0,8.98,217.0,10.54,12.41,47.59359,-54.27349
2023-08-22 01:04:00+00:00,215.0,9.64,211.0,10.81,12.41,47.59359,-54.27349
2023-08-22 01:14:00+00:00,215.0,9.66,217.0,10.58,12.41,47.59359,-54.27349
2023-08-22 01:24:00+00:00,218.0,8.67,218.0,9.98,12.41,47.59359,-54.27349
2023-08-22 01:34:00+00:00,218.0,9.02,219.0,10.04,12.41,47.59359,-54.27349
2023-08-22 01:44:00+00:00,218.0,9.35,215.0,10.72,12.41,47.59359,-54.27349
2023-08-22 01:54:00+00:00,217.0,9.22,219.0,10.49,12.41,47.59359,-54.27349
2023-08-22 02:04:00+00:00,217.0,9.54,217.0,10.54,12.41,47.59359,-54.27349
2023-08-22 02:14:00+00:00,218.0,8.42,217.0,9.68,12.41,47.59359,-54.27349
2023-08-22 02:24:00+00:00,223.0,8.78,223.0,10.32,12.41,47.59359,-54.27349
2023-08-22 02:34:00+00:00,215.0,8.74,215.0,10.0,12.41,47.59359,-54.27349
2023-08-22 02:44:00+00:00,219.0,8.41,222.0,9.48,12.41,47.59359,-54.27349
2023-08-22 02:54:00+00:00,216.0,8.52,216.0,9.45,12.41,47.59359,-54.27349
2023-08-22 03:04:00+00:00,215.0,8.01,218.0,8.86,12.41,47.59359,-54.27349
2023-08-22 03:14:01+00:00,218.0,8.15,220.0,9.43,12.41,47.59359,-54.27349
2023-08-22 03:24:01+00:00,221.0,8.68,220.0,9.79,12.41,47.59359,-54.27349
2023-08-22 03:34:01+00:00,216.0,8.69,215.0,10.13,12.41,47.59359,-54.27349
2023-08-22 03:44:01+00:00,219.0,9.13,217.0,10.47,12.41,47.59359,-54.27349
2023-08-22 03:54:01+00:00,217.0,8.95,219.0,9.93,12.41,47.59359,-54.27349
2023-08-22 04:04:01+00:00,221.0,7.68,223.0,8.58,12.41,47.59359,-54.27349
2023-08-22 04:14:01+00:00,220.0,8.01,221.0,9.32,12.41,47.59359,-54.27349
2023-08-22 04:24:01+00:00,218.0,8.67,216.0,9.46,12.41,47.59359,-54.27349
2023-08-22 04:34:01+00:00,220.0,7.81,225.0,8.83,12.41,47.59359,-54.27349
2023-08-22 04:44:01+00:00,220.0,7.37,220.0,8.51,12.41,47.59359,-54.27349
2023-08-22 04:54:01+00:00,219.0,7.14,217.0,9.08,12.41,47.59359,-54.27349
2023-08-22 05:04:01+00:00,213.0,8.1,214.0,9.33,12.41,47.59359,-54.27349
2023-08-22 05:14:00+00:00,212.0,7.04,214.0,8.03,12.41,47.59359,-54.27349
2023-08-22 05:24:00+00:00,214.0,7.23,215.0,7.75,12.41,47.59359,-54.27349
2023-08-22 05:34:00+00:00,217.0,8.15,217.0,9.05,12.41,47.59359,-54.27349
2023-08-22 05:44:00+00:00,213.0,7.18,207.0,8.44,12.41,47.59359,-54.27349
2023-08-22 05:54:00+00:00,210.0,8.36,208.0,9.23,12.41,47.59359,-54.27349
2023-08-22 06:04:00+00:00,213.0,7.64,215.0,8.58,12.41,47.59359,-54.27349
2023-08-22 06:14:00+00:00,220.0,7.25,222.0,8.18,12.33,47.59359,-54.27349
2023-08-22 06:24:00+00:00,216.0,7.75,215.0,8.55,12.33,47.59359,-54.27349
2023-08-22 06:34:00+00:00,218.0,7.36,215.0,8.86,12.33,47.59359,-54.27349
2023-08-22 06:44:00+00:00,214.0,7.53,216.0,8.33,12.33,47.59359,-54.27349
2023-08-22 06:54:00+00:00,208.0,7.21,208.0,8.43,12.33,47.59359,-54.27349
2023-08-22 07:04:00+00:00,214.0,7.01,216.0,8.19,12.33,47.59359,-54.27349
2023-08-22 07:14:01+00:00,217.0,7.6,221.0,8.98,12.33,47.59359,-54.27349
2023-08-22 07:24:01+00:00,218.0,7.19,223.0,8.29,12.33,47.59359,-54.27349
2023-08-22 07:34:01+00:00,211.0,7.31,208.0,8.3,12.33,47.59359,-54.27349
2023-08-22 07:44:01+00:00,213.0,6.88,216.0,7.71,12.33,47.59359,-54.27349
2023-08-22 07:54:01+00:00,207.0,6.58,209.0,7.68,12.33,47.59359,-54.27349
2023-08-22 08:04:01+00:00,211.0,7.3,213.0,8.15,12.33,47.59359,-54.27349
2023-08-22 08:14:01+00:00,213.0,6.94,215.0,7.48,12.33,47.59359,-54.27349
2023-08-22 08:24:01+00:00,213.0,6.29,213.0,7.33,12.33,47.59359,-54.27349
2023-08-22 08:34:01+00:00,212.0,7.09,211.0,7.71,12.33,47.59359,-54.27349
2023-08-22 08:44:01+00:00,209.0,7.06,213.0,8.03,12.33,47.59359,-54.27349
2023-08-22 08:54:01+00:00,211.0,8.24,214.0,8.99,12.33,47.59359,-54.27349
2023-08-22 09:04:01+00:00,213.0,8.05,212.0,8.54,12.33,47.59359,-54.27349
2023-08-22 09:14:01+00:00,216.0,8.23,218.0,9.29,12.25,47.59359,-54.27349
2023-08-22 09:24:01+00:00,213.0,8.13,212.0,9.08,12.25,47.59359,-54.27349
2023-08-22 09:34:01+00:00,216.0,7.46,219.0,8.52,12.25,47.59359,-54.27349
2023-08-22 09:44:01+00:00,218.0,7.56,213.0,8.47,12.25,47.59359,-54.27349
2023-08-22 09:54:01+00:00,219.0,7.51,226.0,9.08,12.25,47.59359,-54.27349
2023-08-22 10:04:01+00:00,218.0,7.23,221.0,8.01,12.25,47.59359,-54.27349
2023-08-22 10:14:00+00:00,217.0,7.15,213.0,8.37,12.25,47.59359,-54.27349
2023-08-22 10:24:00+00:00,210.0,7.41,210.0,8.7,12.25,47.59359,-54.27349
2023-08-22 10:34:00+00:00,216.0,8.76,214.0,9.97,12.25,47.59359,-54.27349
2023-08-22 10:44:00+00:00,216.0,9.12,216.0,10.2,12.25,47.59359,-54.27349
2023-08-22 10:54:00+00:00,218.0,7.55,218.0,8.68,12.25,47.59359,-54.27349
2023-08-22 11:04:00+00:00,216.0,8.61,220.0,9.53,12.25,47.59359,-54.27349
2023-08-22 11:14:01+00:00,217.0,8.47,216.0,9.59,12.25,47.59359,-54.27349
2023-08-22 11:24:01+00:00,217.0,8.08,217.0,8.95,12.25,47.59359,-54.27349
2023-08-22 11:34:01+00:00,224.0,7.92,228.0,8.83,12.25,47.59359,-54.27349
2023-08-22 11:44:01+00:00,218.0,10.05,231.0,11.62,12.25,47.59359,-54.27349
2023-08-22 11:54:01+00:00,218.0,9.25,214.0,10.41,12.25,47.59359,-54.27349
2023-08-22 12:04:01+00:00,221.0,6.88,219.0,7.63,12.25,47.59359,-54.27349
2023-08-22 12:14:00+00:00,217.0,9.37,218.0,10.8,12.41,47.59359,-54.27349
2023-08-22 12:24:00+00:00,211.0,8.94,210.0,10.19,12.41,47.59359,-54.27349
2023-08-22 12:34:00+00:00,215.0,8.9,214.0,9.91,12.41,47.59359,-54.27349
2023-08-22 12:44:00+00:00,210.0,9.58,210.0,10.76,12.41,47.59359,-54.27349
2023-08-22 12:54:00+00:00,216.0,8.94,219.0,10.05,12.41,47.59359,-54.27349
2023-08-22 13:04:00+00:00,216.0,8.13,218.0,9.19,12.41,47.59359,-54.27349
2023-08-22 13:14:01+00:00,213.0,8.77,204.0,10.22,13.05,47.59359,-54.27349
2023-08-22 13:24:01+00:00,213.0,8.73,209.0,9.84,13.05,47.59359,-54.27349
2023-08-22 13:34:01+00:00,213.0,8.88,213.0,9.81,13.05,47.59359,-54.27349
2023-08-22 13:44:01+00:00,217.0,8.42,216.0,9.56,13.05,47.59359,-54.27349
2023-08-22 13:54:01+00:00,220.0,7.81,220.0,9.21,13.05,47.59359,-54.27349
2023-08-22 14:04:01+00:00,224.0,7.89,222.0,8.68,13.05,47.59359,-54.27349
2023-08-22 14:14:00+00:00,216.0,7.68,216.0,8.63,13.29,47.59359,-54.27349
2023-08-22 14:24:00+00:00,211.0,8.85,212.0,10.81,13.29,47.59359,-54.27349
2023-08-22 14:34:00+00:00,206.0,7.91,205.0,8.71,13.29,47.59359,-54.27349
2023-08-22 14:44:00+00:00,197.0,8.3,196.0,9.29,13.29,47.59359,-54.27349
2023-08-22 14:54:00+00:00,211.0,8.54,215.0,9.83,13.29,47.59359,-54.27349
2023-08-22 15:04:00+00:00,210.0,8.62,211.0,9.72,13.29,47.59359,-54.27349
2023-08-22 15:14:01+00:00,214.0,8.76,210.0,9.71,13.44,47.59359,-54.27349
2023-08-22 15:24:01+00:00,224.0,6.92,222.0,8.32,13.44,47.59359,-54.27349
2023-08-22 15:34:01+00:00,221.0,7.89,217.0,9.2,13.44,47.59359,-54.27349
2023-08-22 15:44:01+00:00,215.0,8.12,216.0,9.53,13.44,47.59359,-54.27349
2023-08-22 15:54:01+00:00,210.0,8.22,214.0,9.22,13.44,47.59359,-54.27349
2023-08-22 16:04:01+00:00,205.0,7.08,208.0,8.59,13.44,47.59359,-54.27349
2023-08-22 16:14:00+00:00,197.0,8.25,195.0,9.48,13.6,47.59359,-54.27349
2023-08-22 16:24:00+00:00,205.0,7.45,212.0,8.96,13.6,47.59359,-54.27349
2023-08-22 16:34:00+00:00,212.0,6.92,214.0,7.94,13.6,47.59359,-54.27349
2023-08-22 16:44:00+00:00,201.0,5.76,201.0,6.28,13.6,47.59359,-54.27349
2023-08-22 16:54:00+00:00,200.0,5.92,201.0,6.51,13.6,47.59359,-54.27349
2023-08-22 17:04:00+00:00,199.0,5.34,202.0,6.22,13.6,47.59359,-54.27349
2023-08-22 17:14:00+00:00,198.0,6.17,207.0,6.84,13.37,47.59359,-54.27349
2023-08-22 17:24:00+00:00,210.0,5.05,214.0,5.49,13.37,47.59359,-54.27349
2023-08-22 17:34:00+00:00,209.0,4.51,211.0,5.03,13.37,47.59359,-54.27349
2023-08-22 17:44:00+00:00,196.0,4.33,196.0,4.67,13.37,47.59359,-54.27349
2023-08-22 17:54:00+00:00,196.0,4.7,197.0,5.14,13.37,47.59359,-54.27349
2023-08-22 18:04:00+00:00,201.0,5.23,201.0,5.66,13.37,47.59359,-54.27349
2023-08-22 18:14:00+00:00,199.0,4.82,200.0,5.26,13.68,47.59359,-54.27349
2023-08-22 18:24:00+00:00,209.0,4.77,211.0,5.15,13.68,47.59359,-54.27349
2023-08-22 18:34:00+00:00,209.0,5.19,209.0,5.67,13.68,47.59359,-54.27349
2023-08-22 18:44:00+00:00,211.0,6.3,214.0,6.92,13.68,47.59359,-54.27349
2023-08-22 18:54:00+00:00,203.0,5.74,202.0,6.75,13.68,47.59359,-54.27349
2023-08-22 19:04:00+00:00,204.0,5.7,203.0,6.39,13.68,47.59359,-54.27349
2023-08-22 19:14:00+00:00,207.0,5.89,204.0,6.57,13.6,47.59359,-54.27349
2023-08-22 19:24:00+00:00,201.0,5.23,201.0,5.67,13.6,47.59359,-54.27349
2023-08-22 19:34:00+00:00,206.0,6.28,207.0,6.98,13.6,47.59359,-54.27349
2023-08-22 19:44:00+00:00,205.0,7.55,209.0,8.68,13.6,47.59359,-54.27349
2023-08-22 19:54:00+00:00,209.0,7.51,214.0,8.3,13.6,47.59359,-54.27349
2023-08-22 20:04:00+00:00,216.0,7.35,215.0,8.41,13.6,47.59359,-54.27349
2023-08-22 20:14:00+00:00,215.0,6.91,219.0,7.71,13.68,47.59359,-54.27349
2023-08-22 20:24:00+00:00,216.0,7.87,219.0,8.53,13.68,47.59359,-54.27349
2023-08-22 20:34:00+00:00,219.0,7.44,220.0,8.32,13.68,47.59359,-54.27349
2023-08-22 20:44:00+00:00,228.0,7.37,229.0,8.01,13.68,47.59359,-54.27349
2023-08-22 20:54:00+00:00,224.0,6.53,224.0,7.59,13.68,47.59359,-54.27349
2023-08-22 21:04:00+00:00,221.0,5.71,226.0,6.45,13.68,47.59359,-54.27349
2023-08-22 21:14:01+00:00,218.0,6.0,216.0,6.51,13.29,47.59359,-54.27349
2023-08-22 21:24:01+00:00,207.0,6.36,208.0,6.94,13.29,47.59359,-54.27349
2023-08-22 21:34:01+00:00,208.0,6.73,210.0,7.12,13.29,47.59359,-54.27349
2023-08-22 21:44:01+00:00,214.0,6.46,220.0,7.27,13.29,47.59359,-54.27349
2023-08-22 21:54:01+00:00,212.0,6.06,214.0,6.78,13.29,47.59359,-54.27349
2023-08-22 22:04:01+00:00,215.0,5.66,210.0,6.63,13.29,47.59359,-54.27349
2023-08-22 22:14:00+00:00,210.0,5.01,210.0,5.39,12.89,47.59359,-54.27349
2023-08-22 22:24:00+00:00,217.0,4.26,219.0,4.63,12.89,47.59359,-54.27349
2023-08-22 22:34:00+00:00,218.0,3.79,220.0,4.38,12.89,47.59359,-54.27349
2023-08-22 22:44:00+00:00,209.0,2.9,214.0,3.36,12.89,47.59359,-54.27349
2023-08-22 22:54:00+00:00,197.0,3.81,193.0,4.29,12.89,47.59359,-54.27349
2023-08-22 23:04:00+00:00,206.0,4.39,208.0,4.7,12.89,47.59359,-54.27349
2023-08-22 23:14:00+00:00,202.0,4.27,204.0,4.66,12.49,47.59359,-54.27349
2023-08-22 23:24:00+00:00,197.0,4.31,195.0,4.61,12.49,47.59359,-54.27349
2023-08-22 23:34:00+00:00,196.0,4.99,200.0,5.54,12.49,47.59359,-54.27349
2023-08-22 23:44:00+00:00,213.0,4.59,216.0,4.93,12.49,47.59359,-54.27349
2023-08-22 23:54:00+00:00,218.0,4.75,216.0,5.11,12.49,47.59359,-54.27349
